Regional Weather Roundup
Issued by NWS

Home | Current Version | Previous Version | Text Only | Print | Product List | Glossary Off
Versions: 1 2 3 4 5 6 7 8 9 10 11 12 13 14 15 16 17 18 19 20 21 22 23 24 25 26 27 28 29 30 31 32 33 34 35 36 37 38 39 40 41 42 43 44 45 46 47 48 49 50

000
ASUS43 KOAX 241310
RWRNE

WEATHER ROUNDUP FOR NEBRASKA
NATIONAL WEATHER SERVICE OMAHA NE
700 AM CST MON NOV 24 2014

NOTES: SATELLITE DATA IS BEING USED TO AUGMENT CLOUD COVER ABOVE
       12000 FEET.
       "FAIR" INDICATES FEW OR NO CLOUDS BELOW 12,000 FEET WITH NO
       SIGNIFICANT WEATHER AND/OR OBSTRUCTIONS TO VISIBILITY.

  * THESE STATIONS DO NOT REPORT WEATHER SUCH AS RAIN...SNOW OR FOG.

NEZ001>004-019>022-054>056-241400-
NEBRASKA PANHANDLE

CITY           SKY/WX    TMP DP  RH WIND       PRES   REMARKS
SCOTTSBLUFF    MOCLDY    26  17  68 NW12      29.82R WCI  16
ALLIANCE       CLEAR     20  14  77 W10       29.78R WCI   9
CHADRON        PTCLDY    29  18  63 NW16      29.81R WCI  17
KIMBALL        PTCLDY    30  16  54 W17       29.79S WCI  18
SIDNEY         CLEAR     28  15  58 NW14      29.80R WCI  17
$$

NEZ057>060-069>072-079>082-241400-
SOUTHWEST NEBRASKA

CITY           SKY/WX    TMP DP  RH WIND       PRES   REMARKS
NORTH PLATTE   CLEAR     25  17  72 NW12      29.76R WCI  14
IMPERIAL       CLEAR     28  13  53 W14       29.79R WCI  17
LEXINGTON      CLEAR     28  20  72 NW12      29.75R WCI  18
MCCOOK         CLEAR     31  15  52 W14G21    29.79R WCI  21
OGALLALA       CLEAR     31  17  54 NW18G25   29.79R WCI  19
$$

NEZ005>010-023>029-035>040-094-241400-
NORTH CENTRAL NEBRASKA

CITY           SKY/WX    TMP DP  RH WIND       PRES   REMARKS
VALENTINE      CLEAR     21  15  78 NW16      29.76R WCI   7
AINSWORTH      CLEAR     21  16  79 NW22G29   29.72R WCI   5
BROKEN BOW     CLEAR     26  17  68 NW17      29.73R WCI  13
O`NEILL        CLOUDY    26  19  77 NW26G40   29.69R WCI  10
ORD            CLOUDY    25  17  72 NW16G25   29.70R WCI  12
THEDFORD       CLEAR     25  20  83 NW12G17   29.77R WCI  14
$$

NEZ041-046>049-061>064-073>077-083>087-241400-
SOUTH CENTRAL NEBRASKA

CITY           SKY/WX    TMP DP  RH WIND       PRES   REMARKS
AURORA         CLOUDY    28  20  70 NW20G26   29.69R WCI  15
HASTINGS       CLEAR     28  19  69 NW25G33   29.71R WCI  13
HEBRON         MOCLDY    31  21  66 NW15G25   29.72R WCI  20
HOLDREGE       FAIR      31  20  63 NW15G22   29.74R WCI  20
KEARNEY *      CLEAR     30  19  64 NW13G21   29.74R WCI  20
YORK           CLOUDY    28  19  69 NW23G39   29.68R WCI  14
$$

NEZ011>018-030>034-042>045-241400-
NORTHEAST NEBRASKA

CITY           SKY/WX    TMP DP  RH WIND       PRES   REMARKS
NORFOLK        CLOUDY    27  18  69 NW23G35   29.63R WCI  12
ALBION         CLOUDY    28  18  65 NW22      29.67R WCI  14
BLAIR          CLOUDY    28  20  69 NW17G30   29.61R WCI  16
COLUMBUS *     CLOUDY    28  18  64 NW22G31   29.67R WCI  15
FREMONT        CLOUDY    29  20  68 NW21G28   29.65R WCI  16
TEKAMAH        CLOUDY    27  15  61 NW22G32   29.63R WCI  13
WAYNE          CLOUDY    25  18  72 NW20G28   29.63R WCI  11
$$

NEZ050>053-065>068-078-088>093-241400-
SOUTHEAST NEBRASKA

CITY           SKY/WX    TMP DP  RH WIND       PRES   REMARKS
LINCOLN        CLOUDY    32  19  58 NW26G33   29.66R WCI  18
OMAHA EPPLEY   CLOUDY    29  19  66 NW22G35   29.63R WCI  15
BEATRICE       CLOUDY    31  21  66 NW20      29.67R WCI  19
FALLS CITY     CLOUDY    32  23  69 NW9       29.63R WCI  24
NEBRASKA CITY  CLOUDY    30  19  63 NW14G23   29.63R WCI  20
PLATTSMOUTH    CLOUDY    29  19  66 NW16      29.62R WCI  18
$$

NEZ044-045-051>053-067-241400-
OMAHA AREA

CITY           SKY/WX    TMP DP  RH WIND       PRES   REMARKS
OMAHA EPPLEY   CLOUDY    29  19  66 NW22G35   29.63R WCI  15
BLAIR          CLOUDY    28  20  69 NW17G30   29.61R WCI  16
FREMONT        CLOUDY    29  20  68 NW21G28   29.65R WCI  16
MILLARD        CLOUDY    30  19  63 NW23      29.64R WCI  17
OFFUTT AFB     CLOUDY    29  18  63 NW18G38   29.62R WCI  17
PLATTSMOUTH    CLOUDY    29  19  66 NW16      29.62R WCI  18
WAHOO          CLOUDY    29  20  67 NW12G17   29.65R WCI  20
$$



USA.gov is the U.S. government's official web portal to all federal, state and local government web resources and services.